Location: Pasadena, ca
(34.1243°N, 118.1037°W)
Time: 08:55:49
(UTC-07:00)

Tiangong 2 - Pass Details

Date: 15 October 2017
Orbit: 388 x 391 km, 42.8° (Epoch: 21 October)

Event Time Altitude Azimuth Distance (km) Brightness Sun altitude
Exits shadow 05:40:28 16° 342° (NNW) 1,138 3.3 -16.8°
Maximum altitude 05:41:27 17° 5° (N) 1,060 3.3 -16.6°
Drops below altitude 10° 05:43:42 10° 49° (NE) 1,420 4.7 -16.1°
Sets 05:46:15 0° 71° (ENE) 2,276 6.4 -15.6°
